This is the latest recevied weather packets stored in our database for station/object SA7AHC. If no packets are shown the sender has not sent any weather packets the latest 10 day(s).
| Time | Temp. | Humidity | Pressure | Rain* | Wind** | Luminosity | Snow |
|---|---|---|---|---|---|---|---|
| 1777942244 | 3.89° C | 92% | 1009.6 hPa | 0 mm | - | 0 W/m² | - |
| 1777941638 | 3.89° C | 92% | 1009.6 hPa | 0 mm | - | 0 W/m² | - |
| 1777941040 | 4.44° C | 92% | 1009.7 hPa | 0 mm | - | 0 W/m² | - |
| 1777940438 | 4.44° C | 92% | 1009.9 hPa | 0 mm | - | 0 W/m² | - |
| 1777939842 | 3.89° C | 92% | 1009.9 hPa | 0 mm | - | 0 W/m² | - |
| 1777939238 | 3.89° C | 92% | 1009.8 hPa | 0 mm | - | 0 W/m² | - |
| 1777938637 | 3.33° C | 92% | 1009.7 hPa | 0 mm | - | 0 W/m² | - |
| 1777938031 | 3.33° C | 91% | 1009.7 hPa | 0 mm | - | 0 W/m² | - |
| 1777937427 | 2.78° C | 90% | 1009.9 hPa | 0 mm | - | 0 W/m² | - |
| 1777936811 | 3.33° C | 89% | 1010.1 hPa | 0 mm | - | 0 W/m² | - |
| 1777936207 | 3.33° C | 88% | 1010.1 hPa | 0 mm | - | 0 W/m² | - |
| 1777935622 | 3.33° C | 87% | 1010.1 hPa | 0 mm | - | 0 W/m² | - |
| 1777935007 | 3.33° C | 85% | 1010.1 hPa | 0 mm | - | 0 W/m² | - |
| 1777934407 | 3.89° C | 83% | 1010.2 hPa | 0 mm | - | 0 W/m² | - |
| 1777933807 | 4.44° C | 82% | 1010.2 hPa | 0 mm | - | 0 W/m² | - |
| 1777933207 | 4.44° C | 81% | 1010.2 hPa | 0 mm | - | 0 W/m² | - |
| 1777932607 | 4.44° C | 80% | 1010.2 hPa | 0 mm | - | 0 W/m² | - |
| 1777932011 | 4.44° C | 79% | 1010.3 hPa | 0 mm | - | 0 W/m² | - |
| 1777931409 | 4.44° C | 78% | 1010.2 hPa | 0 mm | - | 0 W/m² | - |
| 1777930806 | 5° C | 77% | 1010.3 hPa | 0 mm | - | 0 W/m² | - |
| 1777930204 | 5° C | 77% | 1010.2 hPa | 0 mm | - | 0 W/m² | - |
| 1777929611 | 5° C | 76% | 1010.3 hPa | 0 mm | - | 0 W/m² | - |
| 1777928991 | 5.56° C | 74% | 1010.3 hPa | 0 mm | - | 0 W/m² | - |
| 1777928391 | 5.56° C | 73% | 1010.3 hPa | 0 mm | - | 0 W/m² | - |
| 1777927792 | 5.56° C | 73% | 1010.2 hPa | 0 mm | - | 0 W/m² | - |
* Rain latest hour (hover to see other rain measurements)
** Current wind speed in m/s (hover to see current wind gust speed)